STARLINK-31898, 59905

Orbit data source: Space-Track

STARLINK-31898, 59905 is a payload satellite owned by SpaceX/Seattle (US) in LEO that was launched on Tue, 28 May 2024 UTC via an FALCON 9 launch vehicle from the Air Force Eastern Test Range (AFETR). Payload-class satellites include a variety of spacecraft equipped with specific instruments for various scientific and technological missions. These include communications satellites like Starlink; space stations such as the ISS; scientific satellites like the Hubble; Earth observation satellites from companies like Planet Labs, Umbra, and HawkEye 360; GPS; miniature CubeSats for education and research; and military/defense satellites.

Loading next visibility...
Identifier
59905, 2024-100W
Orbit
LEO
Country
Flag of USUS
Related business
Manufacturer
SpaceX/Seattle
Mission
Operational Commercial Communications
Bus & Motor
STARLINK V2M, Unknown motor
Mass
730 kg wet, ~700 kg dry
Launch date (UTC)
2024-05-28 (2 years ago)
Launch vehicle
FALCON 9
Launch site
Air Force Eastern Test Range (AFETR)
Object type
Payload
Rocket body
Debris
Shape & HBR
Box + 2 Pan, 17.7 m
Radar Cross Section
33.884 m², Large (>1 m²)

Expand to show TLE details & history
Last TLE update: 12 hours ago

TLE from 12 hours ago
0 STARLINK-31898
1 59905U 24100W   26126.14481132 -.00000570  00000-0 -11192-4 0  9998
2 59905  43.0032 157.4867 0001156 274.7294  85.3425 15.27580590109973
Epoch: 2026-05-06T03:28Z
TLE epoch observation values (Epoch: 2026-05-06T03:28:31.698Z)
Latitude
-0.00004°
Longitude
-118.65493°
Altitude
482.759 km
Speed
7.626 km/s
True Right ascension
10h 29m 56s
True Declination
0° 00' 00"
Sunlit
Object was in full shadow at epoch
Visualization orbit readout
Latitude
Unknown
Longitude
Unknown
Altitude
Unknown
Speed
Unknown
Apparent Right ascension
Unknown
Apparent Declination
Unknown
Sunlit
N/A
Visualization observer readout
Local Sidereal Time
23:15:39
Azimuth
Unknown
Elevation
Unknown
Doppler factor
Unknown
Orbital elements
Apogee altitude
485.785 km
Perigee altitude
484.199 km
Semi-major axis
6,863.129 km
Eccentricity
0.00012
Inclination
43.0032°
RAAN
157.4867°
Arg. of periapsis
274.7294°
True anomaly
85.3557°
Mean anomaly
85.3425°
Eccentric anomaly
85.3491°
Mean motion
3.81733 °/min
Orbital period
94.31 mins
BSTAR
-0.000011192
Loading maneuver chart data...
Computing Atmospheric mass density...
Loading historical data...
Loading historical data...
Loading historical data...
Loading historical data...
Loading historical data...
Loading historical data...
Loading historical data...

Documentation

Showing up to 5 results
|